Flag for U.S.A. Weather past 2 weeks in Visalia, California, U.S.A.

Now
61 °F

Clear.


Feels Like: 61 °F
Forecast: 53 / 88 °F
Wind: 3 mph from East

Location: Visalia Municipal

Current Time: Mar 27, 2015 at 1:01:23 AM

Latest Report: Mar 27, 2015 at 12:35 AM


Visibility: 10 mi

Pressure: 30.08 "Hg

Humidity: 59%

Dew point: 46 °F

Location of VisaliaLocation

Historic Weather in Visalia — Graph

°F

Visalia temperature yesterday

Maximum temperature yesterday: 84 °F (at 3:35 PM)
Minimum temperature yesterday: 48 °F (at 7:15 AM)
Average temperature yesterday: 66 °F

Past Weeks' High & Low Weather Summary

 TemperatureHumidityPressure
High90 °F (Mar 15, 3:35 PM)82% (Mar 12, 6:15 AM)30.28 "Hg (Mar 12, 6:15 AM)
Low43 °F (Mar 24, 7:15 AM)20% (Mar 15, 4:15 PM)29.91 "Hg (Mar 16, 6:15 PM)
Average63 °F57%30.10 "Hg
* Reported Mar 11 11:15 PM — Mar 26 11:55 PM, Visalia, Weather by CustomWeather, © 2015

Note: Actual official high and low records may vary slightly from our data, if they occured in-between our weather recording intervals... More about our weather records

Advertising

Visalia weather history for previous 24 hours

 ConditionsComfort  
Time TempWeatherWind HumidityBarometerVisibility
11:55 PM
Thu, Mar 26
63 °FClear.No wind56%30.09 "Hg10 mi
11:35 PM63 °FClear.3 mph56%30.09 "Hg10 mi
11:15 PM61 °FClear.5 mph55%30.09 "Hg10 mi
10:55 PM63 °FClear.7 mph56%30.09 "Hg10 mi
10:35 PM63 °FClear.5 mph52%30.08 "Hg10 mi
10:15 PM72 °FClear.No wind44%30.07 "Hg10 mi
9:55 PM70 °FClear.6 mph46%30.07 "Hg10 mi
9:35 PM72 °FClear.6 mph41%30.07 "Hg10 mi
8:55 PM72 °FClear.5 mph44%30.05 "Hg10 mi
8:15 PM77 °FClear.5 mph34%30.04 "Hg10 mi
7:55 PM77 °FSunny.6 mph34%30.04 "Hg10 mi
7:35 PM79 °FSunny.6 mph32%30.05 "Hg10 mi
7:15 PM81 °FSunny.3 mph30%30.05 "Hg10 mi
6:55 PM81 °FSunny.3 mph28%30.05 "Hg10 mi
6:35 PM82 °FSunny.7 mph26%30.05 "Hg10 mi
6:15 PM84 °FSunny.8 mph25%30.05 "Hg10 mi
5:55 PM84 °FSunny.7 mph27%30.05 "Hg10 mi
5:35 PM84 °FSunny.7 mph27%30.05 "Hg10 mi
5:15 PM84 °FSunny.6 mph33%30.05 "Hg2 mi
4:55 PM84 °FSunny.No wind27%30.06 "Hg10 mi
4:35 PM84 °FSunny.5 mph27%30.06 "Hg10 mi
4:15 PM84 °FSunny.6 mph29%30.05 "Hg10 mi
3:55 PM84 °FSunny.No wind31%30.06 "Hg10 mi
3:35 PM84 °FSunny.6 mph33%30.07 "Hg10 mi
3:15 PM82 °FSunny.5 mph35%30.07 "Hg10 mi
2:55 PM82 °FSunny.5 mph37%30.09 "Hg10 mi
2:35 PM81 °FSunny.6 mph39%30.09 "Hg10 mi
2:15 PM81 °FSunny.No wind39%30.11 "Hg10 mi
1:55 PM79 °FSunny.No wind39%30.12 "Hg10 mi
1:35 PM81 °FSunny.No wind42%30.13 "Hg10 mi
1:15 PM77 °FSunny.No wind44%30.14 "Hg10 mi
12:55 PM75 °FSunny.3 mph47%30.15 "Hg10 mi
12:35 PM75 °FSunny.No wind47%30.18 "Hg10 mi
12:15 PM73 °FSunny.3 mph47%30.18 "Hg10 mi
11:55 AM73 °FSunny.No wind47%30.19 "Hg10 mi
11:35 AM72 °FSunny.No wind50%30.20 "Hg10 mi
11:15 AM70 °FSunny.No wind53%30.20 "Hg10 mi
10:55 AM70 °FSunny.No wind53%30.21 "Hg10 mi
10:35 AM68 °FSunny.No wind56%30.21 "Hg10 mi
10:15 AM64 °FSunny.3 mph64%30.21 "Hg10 mi
9:55 AM63 °FSunny.3 mph59%30.20 "Hg10 mi
9:35 AM63 °FSunny.6 mph64%30.20 "Hg10 mi
9:15 AM61 °FSunny.3 mph63%30.20 "Hg10 mi
8:55 AM57 °FSunny.6 mph67%30.19 "Hg10 mi
8:35 AM55 °FSunny.5 mph72%30.19 "Hg10 mi
8:15 AM55 °FSunny.3 mph67%30.18 "Hg10 mi
7:55 AM54 °FSunny.3 mph72%30.18 "Hg9 mi
7:35 AM52 °FClear.5 mph72%30.18 "Hg10 mi
7:15 AM48 °FClear.3 mph76%30.17 "Hg8 mi
6:55 AM50 °FClear.6 mph76%30.17 "Hg10 mi
6:35 AM52 °FClear.No wind72%30.17 "Hg10 mi
6:15 AM52 °FClear.No wind72%30.16 "Hg10 mi
5:55 AM50 °FClear.No wind76%30.16 "Hg10 mi
5:35 AM52 °FClear.No wind72%30.16 "Hg10 mi
5:15 AM52 °FClear.3 mph72%30.16 "Hg10 mi
4:55 AM52 °FClear.3 mph72%30.16 "Hg10 mi
4:35 AM52 °FClear.3 mph72%30.16 "Hg10 mi
4:15 AM52 °FClear.6 mph72%30.16 "Hg10 mi
3:55 AM52 °FClear.3 mph77%30.16 "Hg10 mi
3:35 AM52 °FClear.5 mph72%30.16 "Hg10 mi
3:15 AM54 °FClear.3 mph72%30.16 "Hg10 mi
2:55 AM52 °FClear.No wind77%30.16 "Hg10 mi
2:35 AM54 °FClear.3 mph72%30.16 "Hg10 mi
2:15 AM54 °FClear.No wind72%30.16 "Hg10 mi
1:55 AM54 °FClear.No wind72%30.16 "Hg10 mi
1:35 AM54 °FClear.No wind72%30.16 "Hg10 mi
1:15 AM54 °FClear.No wind72%30.16 "Hg10 mi
Weather by CustomWeather, © 2015

See weather overviewHow to use our weather pages